sat.trackr.live / text

‹ back to catalog

SITRO-AIS 11 (SHEFFER)

NORAD 57208 · 2023-091AU

PAYLOAD ACTIVE UNKNOWN

§ Identity

Operator
Country
CIS
Launch date
2023-06-27
Launch site
VOSTO
Launch vehicle
Mass (kg)
RCS (m²)

Purposes: tech_demo

External: N2YO · Heavens-Above · Gunter

§ Orbital elements

Epoch: 2026-05-25T04:31:13.312992Z

Period
93.64 min
Inclination
97.5100°
Eccentricity
0.0007811
Mean motion
15.37833680 rev/d
Perigee alt
447.2 km
Apogee alt
457.9 km
Semi-major
6,830.7 km
B*
5.3140e-4
RAAN
215.6296°
Arg perigee
142.3574°
Mean anomaly
217.8218°
Rev number
16,125

§ Raw data

SITRO-AIS 11 (SHEFFER)1 57208U 23091AU  26145.18834853  .00019719  00000+0  53140-3 0  99972 57208  97.5100 215.6296 0007811 142.3574 217.8218 15.37833680161258

JSON: /api/v1/satellites/57208 · /tle

For live sub-satellite position, see the globe view (requires WebGL).

§ Visibility from observer

Set your observer location to see the next 7 days of passes ≥ 10°. The values pass through the URL so the page stays shareable.

No JS? Fill the form by hand. The geolocation button needs JavaScript.

§ Radio — SatNOGS DB

ModeDescriptionDownlinkUplink
GMSK USP Mode U - GMSK USP 2K4 TLM 401.320 MHz

1 transmitter · refreshed weekly from db.satnogs.org